Location: Ladrillo (historical)
(32.8195°N, 117.2231°W)
Time: 21:26:41
(UTC+00:00)

X-37B - Pass Details

Date: 29 October 2020
Orbit: 384 x 389 km, 45.0° (Epoch: 12 November)

Event Time Altitude Azimuth Distance (km) Brightness Sun altitude
Rises 13:18:05 0° 205° (SSW) 2,249 4.3 -10.4°
Reaches altitude 10° 13:20:27 10° 188° (S) 1,400 3.4 -9.9°
Maximum altitude 13:22:54 21° 138° (SE) 937 3.3 -9.4°
Drops below altitude 10° 13:25:21 10° 86° (E) 1,409 4.9 -8.9°
Sets 13:27:44 0° 70° (ENE) 2,267 5.6 -8.4°
